Tracking 25734 objects as of 28-May-2022
HD Live streaming from Space Station
objects crossing your sky now

DMSP 5D-3 F19 DEB

Track DMSP 5D-3 F19 DEB now!
10-day predictions


NORAD ID: 39632
Int'l Code: 2014-015C
Perigee: 834.6 km
Apogee: 844.1 km
Inclination: 98.7 °
Period: 101.6 minutes
Semi major axis: 7210 km
RCS: Unknown
Launch date: April 3, 2014
Source: United States (US)
Launch site: AIR FORCE WESTERN TEST RANGE (AFWTR)

Note: This is SATELLITE DEBRIS
aabbcc
Your satellite tracking list
Your tracking list is empty




NASA's NSSDC Master Catalog

Two Line Element Set (TLE):
1 39632U 14015C   22147.91125019  .00001442  00000-0  72534-3 0  9993
2 39632  98.6999 162.7721 0006647  91.6852 268.5085 14.17973974421277
Source of the keplerian elements: AFSPC